User: anonymous   Login
Location: T�bingen+AIT
(48.5342°N, 9.0700°E)
Time: 14:49:17
(UTC+02:00)
Language:

GP-B - Orbit

View from above orbital plane
View from above orbital plane
View from above satellite
View from above satellite

Ground track
Ground track

The orbit data is extracted from the following two-line orbital elements,

1 28230U 04014A   18142.90406185 +.00000109 +00000-0 +12655-4 0  9996
2 28230 089.8328 115.2791 0003155 077.6970 282.4606 14.78618602216494
Epoch (UTC): 22 May 2018 21:41:50
Eccentricity: 0.0003155
inclination: 89.8328°
perigee height: 631 km
apogee height: 636 km
right ascension of ascending node: 115.2791°
argument of perigee: 77.6970°
revolutions per day: 14.78618602
mean anomaly at epoch: 282.4606°
orbit number at epoch: 21649

The dashed part of the orbit path shows where the satellite is in the earth's shadow,  

DLR